[[{"header":{"parameterUnit":"m.s-1","parameterCategory":2,"la1":30.2991,"la2":30.254,"lo1":-89.0895,"lo2":-89.0444,"dy":0.0017,"dx":0.0017,"nx":28,"ny":28,"refTime":"2023-08-23T09:00:00:Z","depth":"0","parameterNumber":2,"parameterNumberName":"U-component_of_CURRENTS"},"data":[0,0,0,0,0,0,0,0,0,0,0,0,0,0,0,0,0,0,0,0,0,0,0,0,0,0,0,0,0,0,0,0,0,0,0,0,0,0,0,0,0,0,0,0,0,0,0,0,0,0,0,0,0,0,0,0,0,0,0.1969,0.197,0,0.1988,0.1988,0.1988,0.1966,0.1965,0.1964,0.1964,0.1893,0.1892,0.1891,0,0,0,0,0,0,0,0,0,0,0,0,0,0.1925,0.1926,0.1969,0.197,0.197,0.1988,0.1988,0.1988,0.1966,0.1965,0.1964,0.1963,0.1894,0.1892,0.1891,0,0,0,0,0,0,0,0,0,0,0,0,0,0.1943,0.1926,0.1969,0.1962,0.1962,0.1988,0.1988,0.1988,0.1966,0.1965,0.1964,0.1963,0.1894,0.1892,0.189,0.1899,0,0,0.1885,0.1884,0,0,0,0,0,0,0,0,0.1942,0.1944,0.1963,0.1963,0.1962,0.1975,0.1947,0.1955,0.1966,0.1963,0.1964,0.1962,0.1914,0.1911,0.1915,0.1896,0.1893,0.1885,0.1883,0.1883,0.1882,0,0,0,0,0,0,0,0.1941,0.1943,0.1975,0.1963,0.1963,0.1962,0.1963,0.1949,0.1941,0.1963,0.1962,0.1967,0.1913,0.1917,0.1913,0.1892,0.1885,0.1883,0.1882,0.1881,0.1876,0.1877,0,0,0,0,0,0,0.1943,0.1942,0.1974,0.1976,0.1951,0.1964,0.1965,0.1971,0.1943,0.1939,0.1968,0.1966,0.1921,0.1915,0.191,0.1929,0.1883,0.1881,0.188,0.1875,0.1876,0.1877,0,0,0,0,0,0,0.1942,0.1945,0.1974,0.1961,0.1964,0.1966,0.1972,0.1972,0.1981,0.1948,0.1942,0.1979,0.192,0.1913,0.1902,0.1926,0.188,0.1878,0.1874,0.1875,0.1877,0.196,0,0,0,0,0,0,0.194,0.1945,0.1956,0.1961,0.1965,0.2006,0.1973,0.1973,0.1986,0.1984,0.1955,0.1947,0.1919,0.1905,0.19,0.1922,0.1877,0.1872,0.1874,0.1876,0.1956,0.1964,0.1971,0,0,0,0,0,0.1939,0.1955,0.1957,0.1961,0.1978,0.2008,0.2011,0.2006,0.1988,0.2007,0.1976,0.1949,0.1913,0.1904,0.1898,0.1921,0.1872,0.1874,0.1876,0.1953,0.1963,0.1971,0,0,0,0,0,0,0.1924,0.1955,0.1956,0.1976,0.2,0.2005,0.2025,0.2016,0.201,0.2003,0.196,0.1951,0.1951,0.1925,0.1916,0.1924,0.1889,0.189,0.1949,0.1958,0.1966,0.1975,0.1875,0,0,0,0,0,0.1932,0.1961,0.1983,0.1999,0.2019,0.2025,0.2037,0.2035,0.2028,0.2025,0.1998,0.1971,0.1957,0.1948,0.193,0.1936,0.1942,0.1946,0.1954,0.196,0.1964,0.2016,0.2029,0.1884,0.1884,0.1884,0,0,0.1923,0.195,0.196,0.2001,0.202,0.2044,0.203,0.2058,0.2064,0.2017,0.2014,0.1997,0.1964,0.1969,0.1967,0.1949,0.2005,0.1963,0.1969,0.1969,0.2019,0.2034,0.2046,0.1886,0.1886,0.1885,0,0,0.1925,0.1957,0.1984,0.2016,0.2058,0.2069,0.208,0.2095,0.2096,0.2097,0.2064,0.2064,0.2033,0.2025,0.2012,0.2052,0.2044,0.2046,0.2092,0.2143,0.2156,0.2167,0.2199,0.2213,0.205,0.205,0.205,0,0.1915,0.1947,0.1994,0.2031,0.2053,0.208,0.2101,0.2117,0.2116,0.2126,0.2103,0.209,0.2061,0.2077,0.2086,0.2071,0.2094,0.2062,0.2156,0.2167,0.2177,0.2207,0.2221,0.2054,0.2054,0.2053,0.2053,0,0.1942,0.1965,0.1991,0.2046,0.2079,0.2109,0.214,0.2169,0.2168,0.2173,0.2195,0.2169,0.2164,0.216,0.2129,0.2187,0.2179,0.2163,0.2138,0.2197,0.2224,0.2237,0.2061,0.2059,0.2058,0.2057,0,0,0.1916,0.1991,0.1997,0.2024,0.2089,0.2119,0.2158,0.2203,0.2233,0.2242,0.2272,0.2259,0.2263,0.225,0.223,0.2266,0.2352,0.2248,0.2249,0.2289,0.2466,0.2568,0.2591,0.2365,0.2367,0.2369,0.2458,0,0.1919,0.1974,0.201,0.2054,0.2089,0.2141,0.2176,0.2224,0.2254,0.2296,0.2309,0.2322,0.2293,0.2296,0.2337,0.2346,0.239,0.2329,0.2393,0.2395,0.2487,0.2611,0.2609,0.2699,0.2471,0.2473,0.2474,0,0.1936,0.1973,0.2011,0.2074,0.2096,0.2124,0.2211,0.224,0.2318,0.2344,0.2388,0.2395,0.2445,0.2408,0.2489,0.2458,0.2471,0.2478,0.2482,0.2557,0.2523,0.26,0.273,0.2569,0.2494,0.2492,0.2491,0,0.1916,0.1973,0.2003,0.2028,0.2104,0.2135,0.2174,0.2255,0.2301,0.2376,0.242,0.248,0.2511,0.2556,0.2587,0.2545,0.2685,0.2624,0.2727,0.2732,0.2733,0.2736,0.2724,0.2693,0.2693,0.2692,0.2692,0,0.1917,0.194,0.1998,0.202,0.2066,0.2124,0.2182,0.2237,0.2328,0.2393,0.2438,0.2509,0.2555,0.2636,0.2643,0.2763,0.2741,0.2775,0.2787,0.2763,0.2767,0.2627,0.2532,0.2696,0.2695,0.2694,0.2694,0,0.1894,0.193,0.1968,0.2036,0.2058,0.2092,0.2181,0.2231,0.2317,0.2408,0.2436,0.2558,0.2684,0.2743,0.2827,0.2853,0.2863,0.2963,0.2934,0.2945,0.2901,0.2812,0.2793,0.2707,0.3099,0.3103,0.3106,0,0.1879,0.19,0.1966,0.1986,0.2014,0.207,0.2114,0.2213,0.227,0.2441,0.2486,0.2647,0.2766,0.2965,0.3064,0.3165,0.2978,0.3194,0.3121,0.2947,0.2855,0.2709,0.2622,0.3133,0.3136,0.3139,0.3141,0,0.1851,0.1882,0.1919,0.1952,0.1991,0.204,0.2107,0.2163,0.2289,0.2395,0.2545,0.2662,0.2912,0.306,0.3241,0.3293,0.3059,0.325,0.3071,0.2914,0.2751,0.2657,0.2995,0.3162,0.316,0.3158,0.3157,0.3156,0.1823,0.1839,0.1882,0.1913,0.195,0.1989,0.2021,0.2126,0.2235,0.2392,0.2534,0.2712,0.2964,0.3253,0.3293,0.3331,0.3226,0.3225,0.314,0.3013,0.2915,0.3324,0.3511,0.3511,0.3511,0.351,0.351,0,0.1774,0.1802,0.1832,0.1862,0.1877,0.1921,0.2,0.2038,0.2151,0.2347,0.2497,0.2788,0.2971,0.3134,0.3294,0.3203,0.3049,0.3071,0.2797,0.2722,0.3097,0.3083,0.3186,0.3186,0.3186,0.3186,0.3186,0.3186,0.175,0.1764,0.1784,0.1778,0.18,0.1804,0.1842,0.1925,0.2047,0.2256,0.2442,0.2625,0.2863,0.302,0.3,0.2949,0.2633,0.261,0.2463,0.2647,0.265,0.2652,0.2614,0.2618,0.2617,0.2033,0.2029,0.2025]},{"header":{"parameterUnit":"m.s-1","parameterCategory":2,"la1":30.2991,"la2":30.254,"lo1":-89.0895,"lo2":-89.0444,"dy":0.0017,"dx":0.0017,"nx":28,"ny":28,"refTime":"2023-08-23T09:00:00:Z","depth":"0","parameterNumber":3,"parameterNumberName":"V-component_of_CURRENTS"},"data":[0,0,0,0,0,0,0,0,0,0,0,0,0,0,0,0,0,0,0,0,0,0,0,0,0,0,0,0,0,0,0,0,0,0,0,0,0,0,0,0,0,0,0,0,0,0,0,0,0,0,0,0,0,0,0,0,0,0,-0.1141,-0.1142,0,-0.1265,-0.1267,-0.1268,-0.134,-0.1341,-0.1341,-0.1341,-0.1431,-0.1433,-0.1435,0,0,0,0,0,0,0,0,0,0,0,0,0,-0.1065,-0.1066,-0.114,-0.1142,-0.1144,-0.1265,-0.1267,-0.1268,-0.134,-0.1341,-0.1341,-0.1341,-0.143,-0.1433,-0.1435,0,0,0,0,0,0,0,0,0,0,0,0,0,-0.1134,-0.1066,-0.114,-0.1194,-0.12,-0.1265,-0.1267,-0.1269,-0.134,-0.1341,-0.1341,-0.1342,-0.143,-0.1433,-0.1436,-0.1446,0,0,-0.1445,-0.1447,0,0,0,0,0,0,0,0,-0.113,-0.1137,-0.1185,-0.1191,-0.1198,-0.1288,-0.1273,-0.1327,-0.134,-0.1287,-0.1341,-0.1342,-0.138,-0.1387,-0.141,-0.145,-0.1454,-0.1446,-0.1448,-0.1449,-0.145,0,0,0,0,0,0,0,-0.1125,-0.1132,-0.119,-0.1186,-0.1194,-0.1247,-0.1256,-0.1284,-0.1328,-0.1292,-0.1297,-0.1311,-0.1383,-0.1406,-0.1412,-0.1456,-0.1446,-0.1448,-0.145,-0.1452,-0.1495,-0.1494,0,0,0,0,0,0,-0.1104,-0.1127,-0.1186,-0.1193,-0.1165,-0.1247,-0.1258,-0.1258,-0.1329,-0.1341,-0.1311,-0.1314,-0.1401,-0.1408,-0.1416,-0.1423,-0.1449,-0.1452,-0.1454,-0.1495,-0.1495,-0.1494,0,0,0,0,0,0,-0.1102,-0.1108,-0.1181,-0.1164,-0.1177,-0.1247,-0.1248,-0.126,-0.1283,-0.1344,-0.1355,-0.132,-0.1402,-0.1411,-0.1432,-0.1427,-0.1453,-0.1456,-0.1496,-0.1495,-0.1494,-0.1444,0,0,0,0,0,0,-0.1099,-0.1106,-0.1092,-0.1162,-0.1177,-0.1205,-0.1248,-0.1263,-0.1291,-0.1297,-0.1355,-0.1365,-0.1403,-0.1427,-0.1436,-0.1432,-0.1459,-0.1497,-0.1496,-0.1494,-0.1446,-0.1441,-0.1436,0,0,0,0,0,-0.1096,-0.1067,-0.109,-0.1098,-0.1158,-0.1205,-0.1217,-0.1269,-0.1291,-0.1292,-0.1332,-0.1363,-0.1424,-0.1429,-0.1439,-0.1437,-0.1498,-0.1496,-0.1495,-0.1449,-0.1442,-0.1437,0,0,0,0,0,0,-0.1039,-0.1074,-0.1101,-0.1088,-0.114,-0.1216,-0.1216,-0.1261,-0.1297,-0.1291,-0.1356,-0.1368,-0.1384,-0.1412,-0.1416,-0.1443,-0.1465,-0.1465,-0.1426,-0.1421,-0.1416,-0.1391,-0.1461,0,0,0,0,0,-0.1017,-0.0999,-0.1063,-0.1057,-0.107,-0.1143,-0.1167,-0.1203,-0.1249,-0.1266,-0.1316,-0.1354,-0.1385,-0.1403,-0.1431,-0.1447,-0.1459,-0.1449,-0.1444,-0.144,-0.1425,-0.1422,-0.1415,-0.1488,-0.1488,-0.1488,0,0,-0.1002,-0.1014,-0.101,-0.1042,-0.108,-0.1093,-0.1157,-0.1177,-0.1197,-0.1267,-0.1293,-0.1336,-0.1384,-0.1403,-0.1413,-0.1426,-0.143,-0.1438,-0.1434,-0.1421,-0.1419,-0.1412,-0.1406,-0.1487,-0.1487,-0.1487,0,0,-0.0963,-0.0963,-0.0941,-0.0966,-0.1005,-0.1043,-0.1045,-0.1115,-0.1147,-0.1182,-0.1235,-0.1272,-0.1326,-0.1364,-0.1389,-0.1371,-0.14,-0.1379,-0.1341,-0.1338,-0.1331,-0.1326,-0.135,-0.1347,-0.138,-0.138,-0.138,0,-0.0943,-0.0928,-0.0948,-0.0938,-0.0954,-0.1014,-0.1014,-0.105,-0.1124,-0.1147,-0.1174,-0.1261,-0.1307,-0.1338,-0.1338,-0.1361,-0.1366,-0.1363,-0.133,-0.1325,-0.1321,-0.1346,-0.1343,-0.1377,-0.1378,-0.1378,-0.1378,0,-0.0904,-0.0889,-0.0875,-0.0875,-0.089,-0.0894,-0.0945,-0.0959,-0.1005,-0.1063,-0.1107,-0.1178,-0.1231,-0.1256,-0.1296,-0.1293,-0.1311,-0.1322,-0.1344,-0.131,-0.134,-0.1338,-0.1374,-0.1374,-0.1375,-0.1376,0,0,-0.0854,-0.0851,-0.0841,-0.0838,-0.0856,-0.0864,-0.0866,-0.0906,-0.0909,-0.0985,-0.1009,-0.1088,-0.1137,-0.1167,-0.1226,-0.1235,-0.1228,-0.1259,-0.126,-0.1281,-0.123,-0.1183,-0.1177,-0.1225,-0.1224,-0.1223,-0.1271,0,-0.0823,-0.0788,-0.0799,-0.0773,-0.076,-0.0795,-0.0798,-0.083,-0.0872,-0.0901,-0.0984,-0.1024,-0.1101,-0.1122,-0.1146,-0.12,-0.1217,-0.1215,-0.1262,-0.1264,-0.1223,-0.117,-0.1073,-0.11,-0.1269,-0.1269,-0.1269,0,-0.0764,-0.0753,-0.072,-0.0719,-0.0717,-0.0709,-0.0704,-0.0724,-0.0768,-0.0803,-0.0856,-0.0918,-0.0971,-0.1023,-0.1102,-0.1092,-0.1152,-0.1197,-0.12,-0.1166,-0.121,-0.1158,-0.1091,-0.1218,-0.1266,-0.1267,-0.1267,0,-0.0692,-0.0685,-0.0654,-0.0653,-0.0663,-0.0652,-0.0665,-0.069,-0.0692,-0.0734,-0.0732,-0.0818,-0.0847,-0.0922,-0.1035,-0.1056,-0.1102,-0.1149,-0.1171,-0.1171,-0.1101,-0.1094,-0.1153,-0.1182,-0.1182,-0.1182,-0.1182,0,-0.0627,-0.06,-0.0616,-0.0596,-0.0559,-0.0595,-0.056,-0.0581,-0.0598,-0.0576,-0.0681,-0.0669,-0.0812,-0.0868,-0.0982,-0.1059,-0.1066,-0.1143,-0.1161,-0.1083,-0.1074,-0.1192,-0.1286,-0.1184,-0.1184,-0.1183,-0.1183,0,-0.0533,-0.0545,-0.0509,-0.052,-0.0513,-0.0484,-0.048,-0.0459,-0.0492,-0.0454,-0.0456,-0.054,-0.0598,-0.0745,-0.0862,-0.0974,-0.1109,-0.1095,-0.1005,-0.101,-0.1136,-0.1229,-0.1298,-0.1343,-0.112,-0.1119,-0.1118,0,-0.0486,-0.0454,-0.0433,-0.0405,-0.0404,-0.0377,-0.0351,-0.0385,-0.0358,-0.0363,-0.033,-0.038,-0.0387,-0.0564,-0.0727,-0.089,-0.1048,-0.095,-0.0969,-0.1104,-0.1224,-0.13,-0.134,-0.0881,-0.0879,-0.0876,-0.0874,0,-0.0409,-0.0392,-0.0365,-0.03,-0.0262,-0.0225,-0.0198,-0.015,-0.017,-0.0118,-0.0068,-0.0068,-0.0226,-0.0311,-0.0545,-0.0689,-0.0996,-0.0906,-0.1056,-0.1034,-0.1107,-0.1171,-0.0928,-0.0853,-0.0856,-0.0857,-0.0858,-0.0859,-0.0347,-0.0307,-0.0263,-0.0192,-0.0145,-0.0078,-0.0012,0.0033,0.0125,0.0244,0.0194,0.0294,0.0083,-0.0193,-0.044,-0.0781,-0.0847,-0.0883,-0.0989,-0.1057,-0.1075,-0.079,-0.0723,-0.0724,-0.0726,-0.0727,-0.0727,0,-0.0283,-0.0239,-0.0171,-0.0084,0.0006,0.0001,0.0094,0.0186,0.0342,0.0493,0.0592,0.0655,0.0371,0.0009,-0.0461,-0.0786,-0.0945,-0.0987,-0.1086,-0.1128,-0.0867,-0.0829,-0.0765,-0.0765,-0.0765,-0.0765,-0.0765,-0.0765,-0.0251,-0.0168,-0.0127,0.0038,0.011,0.0242,0.0318,0.0458,0.0598,0.0878,0.1062,0.1146,0.0904,-0.0066,-0.078,-0.098,-0.1232,-0.1255,-0.1435,-0.1278,-0.1277,-0.1277,-0.1262,-0.1291,-0.1292,-0.1611,-0.1615,-0.1617]}],[{"header":{"parameterUnit":"m.s-1","parameterCategory":2,"la1":30.2991,"la2":30.254,"lo1":-89.0895,"lo2":-89.0444,"dy":0.0017,"dx":0.0017,"nx":28,"ny":28,"refTime":"2023-08-23T09:00:00:Z","depth":"2","parameterNumber":2,"parameterNumberName":"U-component_of_CURRENTS"},"data":[0,0,0,0,0,0,0,0,0,0,0,0,0,0,0,0,0,0,0,0,0,0,0,0,0,0,0,0,0,0,0,0,0,0,0,0,0,0,0,0,0,0,0,0,0,0,0,0,0,0,0,0,0,0,0,0,0,0,0.2871,0.2872,0,0.2962,0.2963,0.2964,0.299,0.2989,0.2988,0.2988,0.293,0.2929,0.2928,0,0,0,0,0,0,0,0,0,0,0,0,0,0.2903,0.2901,0.2871,0.2872,0.2873,0.2962,0.2963,0.2964,0.299,0.2989,0.2988,0.2987,0.293,0.2929,0.2928,0,0,0,0,0,0,0,0,0,0,0,0,0,0.2932,0.2901,0.287,0.2895,0.2898,0.2961,0.2963,0.2965,0.299,0.2989,0.2988,0.2987,0.2931,0.2929,0.2928,0.2939,0,0,0.2924,0.2923,0,0,0,0,0,0,0,0,0.293,0.2931,0.289,0.2893,0.2897,0.2962,0.2954,0.2948,0.299,0.2957,0.2988,0.2986,0.2927,0.2926,0.2949,0.2937,0.2934,0.2924,0.2923,0.2922,0.2922,0,0,0,0,0,0,0,0.2928,0.2928,0.2908,0.2891,0.2895,0.2964,0.2966,0.2954,0.2944,0.2959,0.2961,0.2969,0.2927,0.2951,0.2948,0.2933,0.2924,0.2923,0.2922,0.2921,0.2922,0.2922,0,0,0,0,0,0,0.2904,0.2925,0.2905,0.2911,0.291,0.2964,0.2966,0.2943,0.2948,0.2948,0.297,0.297,0.2954,0.2949,0.2945,0.2957,0.2922,0.2921,0.292,0.2921,0.2922,0.2923,0,0,0,0,0,0,0.2904,0.29,0.2902,0.2921,0.2926,0.2963,0.2939,0.2946,0.295,0.2957,0.2955,0.2964,0.2953,0.2947,0.2957,0.2954,0.292,0.2919,0.292,0.2921,0.2922,0.298,0,0,0,0,0,0,0.2904,0.2899,0.2878,0.2918,0.2924,0.2925,0.294,0.2948,0.2957,0.2957,0.2952,0.2947,0.2951,0.2959,0.2955,0.2952,0.2918,0.2919,0.292,0.2922,0.2977,0.2983,0.2989,0,0,0,0,0,0.2905,0.2868,0.2876,0.2874,0.2891,0.2925,0.2935,0.2961,0.2957,0.296,0.2981,0.2946,0.2965,0.296,0.2955,0.2951,0.2918,0.292,0.2922,0.2975,0.2982,0.2988,0,0,0,0,0,0,0.2862,0.2869,0.2878,0.2842,0.2878,0.2928,0.2931,0.2949,0.2971,0.2968,0.2968,0.2967,0.2969,0.2955,0.2949,0.2956,0.293,0.2931,0.2972,0.2979,0.2984,0.293,0.2917,0,0,0,0,0,0.2845,0.2819,0.2855,0.2827,0.284,0.2884,0.2899,0.2924,0.295,0.2958,0.2948,0.2952,0.2978,0.2974,0.2976,0.2983,0.2981,0.2973,0.2979,0.2984,0.2938,0.2979,0.2984,0.2929,0.2929,0.2929,0,0,0.2813,0.2821,0.2801,0.2818,0.2845,0.2881,0.289,0.291,0.2939,0.2945,0.295,0.2962,0.2984,0.3006,0.3002,0.2991,0.3009,0.2986,0.2991,0.294,0.2982,0.2987,0.2992,0.293,0.293,0.293,0,0,0.2794,0.2752,0.276,0.2789,0.2835,0.2859,0.2858,0.2895,0.2905,0.2923,0.2954,0.2973,0.2963,0.3011,0.3032,0.3063,0.3037,0.3047,0.3031,0.3076,0.308,0.3084,0.3134,0.3141,0.3052,0.3052,0.3052,0,0.2758,0.276,0.277,0.2812,0.2814,0.2844,0.2865,0.2903,0.2936,0.2935,0.2914,0.294,0.297,0.3032,0.3056,0.3073,0.3084,0.3013,0.3083,0.3086,0.3089,0.3139,0.3147,0.3055,0.3055,0.3054,0.3054,0,0.2798,0.2779,0.2778,0.2825,0.2845,0.2844,0.2899,0.2907,0.2892,0.2916,0.2919,0.2963,0.2975,0.3002,0.304,0.3082,0.3082,0.3089,0.3066,0.3098,0.3149,0.3156,0.3059,0.3058,0.3057,0.3057,0,0,0.2708,0.2784,0.2771,0.2786,0.2828,0.2844,0.2882,0.2908,0.2936,0.2919,0.2928,0.2977,0.2966,0.2988,0.3038,0.307,0.3151,0.3077,0.3078,0.3125,0.3241,0.3198,0.3202,0.3167,0.3167,0.3167,0.3286,0,0.2707,0.2759,0.2797,0.2808,0.2813,0.2842,0.2886,0.2926,0.2933,0.2958,0.2968,0.3008,0.2981,0.3014,0.303,0.3124,0.3161,0.3116,0.3199,0.3201,0.3159,0.3205,0.2891,0.2964,0.3293,0.3294,0.3295,0,0.2702,0.2733,0.2747,0.2779,0.2788,0.2818,0.2841,0.2899,0.2965,0.2967,0.2962,0.2995,0.3047,0.303,0.3111,0.3076,0.3142,0.3192,0.32,0.3122,0.3168,0.2975,0.2964,0.3306,0.3305,0.3304,0.3303,0,0.2608,0.2657,0.2647,0.2659,0.2744,0.2753,0.2801,0.2878,0.2915,0.299,0.2998,0.3037,0.3065,0.3113,0.3189,0.3168,0.3273,0.3285,0.3298,0.3298,0.3021,0.2995,0.3336,0.3336,0.3335,0.3335,0.3335,0,0.2539,0.253,0.2606,0.261,0.2631,0.2708,0.2745,0.2813,0.289,0.2935,0.2997,0.3025,0.3078,0.3143,0.3206,0.3253,0.3292,0.3278,0.3315,0.3039,0.3014,0.3284,0.3276,0.334,0.3339,0.3338,0.3337,0,0.2449,0.248,0.2492,0.2568,0.2588,0.2617,0.2711,0.2752,0.2836,0.2896,0.2923,0.3014,0.3114,0.3179,0.3304,0.3277,0.3362,0.3381,0.3054,0.3049,0.3357,0.3351,0.3404,0.3403,0.3403,0.3402,0.3402,0,0.2425,0.2416,0.2463,0.2467,0.25,0.2552,0.2595,0.2702,0.2745,0.2887,0.2905,0.3033,0.3074,0.3208,0.321,0.3289,0.3405,0.3082,0.2983,0.3327,0.336,0.3355,0.335,0.2666,0.266,0.2655,0.265,0,0.2394,0.239,0.2407,0.2412,0.243,0.2464,0.2531,0.2555,0.269,0.274,0.2836,0.2895,0.2987,0.2897,0.2985,0.3005,0.3035,0.2981,0.3417,0.2703,0.2642,0.2672,0.2688,0.2603,0.2608,0.2611,0.2614,0.2616,0.2367,0.2357,0.2347,0.2338,0.2358,0.2355,0.2368,0.2422,0.247,0.2484,0.2646,0.2597,0.2623,0.2561,0.2575,0.2605,0.2815,0.2716,0.2727,0.2745,0.2643,0.2585,0.2518,0.2522,0.2525,0.2528,0.2531,0,0.2313,0.2281,0.2278,0.2254,0.2236,0.2267,0.2302,0.227,0.2272,0.2255,0.2262,0.2034,0.1991,0.2096,0.203,0.2098,0.2031,0.2082,0.1942,0.1989,0.2032,0.1888,0.1566,0.1563,0.1561,0.1559,0,0,0.2271,0.2222,0.2197,0.2118,0.2105,0.206,0.2057,0.2,0.1961,0.1769,0.1664,0.1714,0.1888,0.1602,0.1652,0.1595,0.1767,0.1546,0.2307,0.2178,0.2216,0.2382,0.2215,0,0,0,0,0]},{"header":{"parameterUnit":"m.s-1","parameterCategory":2,"la1":30.2991,"la2":30.254,"lo1":-89.0895,"lo2":-89.0444,"dy":0.0017,"dx":0.0017,"nx":28,"ny":28,"refTime":"2023-08-23T09:00:00:Z","depth":"2","parameterNumber":3,"parameterNumberName":"V-component_of_CURRENTS"},"data":[0,0,0,0,0,0,0,0,0,0,0,0,0,0,0,0,0,0,0,0,0,0,0,0,0,0,0,0,0,0,0,0,0,0,0,0,0,0,0,0,0,0,0,0,0,0,0,0,0,0,0,0,0,0,0,0,0,0,0.0471,0.047,0,0.0391,0.039,0.0389,0.0278,0.0276,0.0275,0.0273,0.0053,0.0049,0.0045,0,0,0,0,0,0,0,0,0,0,0,0,0,0.0586,0.0584,0.0471,0.047,0.0469,0.0391,0.039,0.0388,0.0278,0.0276,0.0274,0.0273,0.0055,0.005,0.0044,0,0,0,0,0,0,0,0,0,0,0,0,0,0.0522,0.0584,0.0471,0.0407,0.04,0.0391,0.039,0.0388,0.0279,0.0276,0.0274,0.0272,0.0056,0.005,0.0044,0.0053,0,0,0.0024,0.0021,0,0,0,0,0,0,0,0,0.0526,0.0517,0.0417,0.0411,0.0404,0.0344,0.035,0.027,0.0279,0.0323,0.0273,0.027,0.0141,0.0127,0.0116,0.0043,0.0034,0.0023,0.0019,0.0017,0.0015,0,0,0,0,0,0,0,0.053,0.0521,0.0437,0.0416,0.0409,0.0402,0.0389,0.0335,0.0242,0.0319,0.0311,0.0307,0.0136,0.0123,0.011,0.003,0.0024,0.0018,0.0014,0.0011,-0.0142,-0.0142,0,0,0,0,0,0,0.0544,0.0525,0.0439,0.0435,0.0463,0.0402,0.0388,0.0364,0.0245,0.0227,0.0309,0.0302,0.0135,0.0118,0.0102,0.0023,0.0017,0.0011,0.0007,-0.0142,-0.0142,-0.0143,0,0,0,0,0,0,0.0547,0.0537,0.0443,0.0481,0.0469,0.0402,0.0377,0.0364,0.0318,0.024,0.0218,0.0273,0.0133,0.0111,0.0038,0.0016,0.0008,0.0002,-0.0142,-0.0142,-0.0142,-0.0083,0,0,0,0,0,0,0.055,0.0538,0.0518,0.0481,0.0467,0.0399,0.0379,0.0364,0.0322,0.0311,0.0203,0.0182,0.0129,0.0049,0.0032,0.0007,-0.0003,-0.0142,-0.0142,-0.0142,-0.0084,-0.0081,-0.0078,0,0,0,0,0,0.0554,0.0534,0.0517,0.0507,0.0443,0.0398,0.0389,0.0334,0.0323,0.0287,0.0237,0.0183,0.0034,0.0044,0.0024,-0.0003,-0.0141,-0.0142,-0.0142,-0.0086,-0.0082,-0.0078,0,0,0,0,0,0,0.0571,0.052,0.05,0.0464,0.042,0.0379,0.0358,0.0328,0.0266,0.026,0.0186,0.0161,0.0087,0.0041,0.0054,-0.0047,-0.0065,-0.0069,-0.0015,-0.0012,-0.0009,0.002,-0.0009,0,0,0,0,0,0.0571,0.0535,0.0492,0.0458,0.0446,0.0404,0.0381,0.0344,0.0296,0.0265,0.0176,0.0113,0.0079,0.0032,-0.0026,-0.0078,-0.0101,-0.011,-0.0106,-0.0103,-0.0093,-0.0163,-0.0165,-0.0144,-0.0144,-0.0144,0,0,0.0568,0.0538,0.0515,0.0459,0.0434,0.0428,0.0381,0.0343,0.0325,0.0253,0.0171,0.0112,0.007,0.0011,-0.0027,-0.0038,-0.0111,-0.0104,-0.0101,-0.0092,-0.0163,-0.0165,-0.0167,-0.0144,-0.0144,-0.0144,0,0,0.058,0.0523,0.0518,0.0488,0.045,0.0424,0.0411,0.0341,0.029,0.0217,0.0186,0.0132,0.0009,0.0003,-0.0009,-0.0018,-0.0089,-0.0068,-0.0037,-0.0105,-0.0107,-0.011,-0.0093,-0.0094,-0.0071,-0.0071,-0.0071,0,0.0581,0.0566,0.0507,0.0511,0.0496,0.043,0.0437,0.0392,0.029,0.0249,0.0181,0.0046,0.0024,0.0011,0.0026,-0.0008,-0.0051,-0.0045,-0.01,-0.0104,-0.0107,-0.009,-0.0092,-0.0068,-0.0068,-0.0068,-0.0069,0,0.0618,0.0593,0.0589,0.0572,0.0545,0.0525,0.0477,0.0413,0.0331,0.0267,0.0155,0.009,0.0008,-0.0001,0.0023,-0.0008,-0.0027,-0.0084,-0.0106,-0.0105,-0.0087,-0.009,-0.0064,-0.0065,-0.0066,-0.0066,0,0,0.0635,0.0619,0.0613,0.0616,0.0571,0.0555,0.0528,0.0471,0.0441,0.0279,0.0209,0.0162,0.0067,0.0054,0.0026,-0.0004,-0.0003,-0.0048,-0.0053,-0.002,-0.0121,-0.0119,-0.0122,-0.0109,-0.011,-0.0111,-0.0079,0,0.0675,0.0701,0.0677,0.0686,0.0691,0.063,0.0617,0.0554,0.0441,0.034,0.0239,0.0164,0.0103,0.0068,0.0011,-0.0001,-0.0021,-0.0003,-0.0136,-0.0137,-0.013,-0.013,-0.0132,-0.0107,-0.0083,-0.0084,-0.0084,0,0.0713,0.0723,0.0743,0.074,0.0741,0.0733,0.0675,0.0653,0.0532,0.0432,0.0282,0.0184,0.0138,0.007,-0.0028,-0.0038,-0.0063,-0.0085,-0.0087,-0.0112,-0.0144,-0.0117,-0.0115,-0.0091,-0.009,-0.009,-0.0089,0,0.0727,0.0759,0.0771,0.0766,0.0761,0.075,0.0747,0.0658,0.0637,0.0484,0.0417,0.0255,0.0184,0.0074,-0.0005,-0.002,-0.0119,-0.0148,-0.0167,-0.0164,-0.0199,-0.0198,-0.0208,-0.0209,-0.0209,-0.0209,-0.0209,0,0.074,0.0748,0.078,0.0764,0.0808,0.0791,0.0783,0.0733,0.0667,0.0646,0.0459,0.0398,0.0168,0.0064,-0.0002,-0.011,-0.014,-0.0145,-0.0173,-0.0172,-0.0169,-0.0198,-0.0198,-0.0207,-0.0208,-0.0208,-0.0208,0,0.0722,0.0728,0.0757,0.0781,0.0792,0.0821,0.0846,0.0849,0.0764,0.0724,0.0695,0.0507,0.0377,0.0172,0.0032,-0.0085,-0.0168,-0.019,-0.0133,-0.0155,-0.0145,-0.0142,-0.0179,-0.0179,-0.0179,-0.0179,-0.0179,0,0.0723,0.0737,0.0773,0.0808,0.0808,0.0856,0.0895,0.0875,0.0888,0.0813,0.0817,0.0665,0.0592,0.0339,0.0083,-0.008,-0.0118,-0.018,-0.0196,-0.0127,-0.015,-0.0147,-0.0143,-0.0186,-0.0186,-0.0186,-0.0186,0,0.077,0.0767,0.0789,0.0837,0.0881,0.0948,0.1001,0.1045,0.1038,0.1035,0.1026,0.099,0.0695,0.0464,0.0161,0.0052,-0.0166,-0.0181,-0.0175,-0.02,-0.0135,-0.0157,-0.0154,-0.0186,-0.0186,-0.0186,-0.0186,-0.0186,0.082,0.0858,0.0872,0.091,0.0959,0.1022,0.1083,0.1178,0.1254,0.1268,0.1221,0.1136,0.0833,0.0439,0.0185,-0.0138,-0.0093,-0.0187,-0.0187,-0.0187,-0.0201,-0.0142,-0.019,-0.019,-0.019,-0.019,-0.019,0,0.0904,0.0915,0.0965,0.1001,0.1049,0.1038,0.1147,0.1245,0.1377,0.1375,0.1383,0.1096,0.0851,0.0502,0.0034,-0.0182,-0.0218,-0.0256,-0.0262,-0.0259,-0.0257,-0.0276,-0.0285,-0.0286,-0.0286,-0.0287,0,0,0.095,0.1001,0.1001,0.1071,0.1081,0.118,0.1235,0.1397,0.1445,0.1462,0.137,0.1276,0.0891,0.0538,0.0209,-0.0054,-0.01,-0.0098,0.0004,0.004,0.0044,-0.0189,-0.0212,0,0,0,0,0]}],[{"header":{"parameterUnit":"m.s-1","parameterCategory":2,"la1":30.2991,"la2":30.254,"lo1":-89.0895,"lo2":-89.0444,"dy":0.0017,"dx":0.0017,"nx":28,"ny":28,"refTime":"2023-08-23T09:00:00:Z","depth":"4","parameterNumber":2,"parameterNumberName":"U-component_of_CURRENTS"},"data":[0,0,0,0,0,0,0,0,0,0,0,0,0,0,0,0,0,0,0,0,0,0,0,0,0,0,0,0,0,0,0,0,0,0,0,0,0,0,0,0,0,0,0,0,0,0,0,0,0,0,0,0,0,0,0,0,0,0,0.1025,0.1026,0,0.1105,0.1106,0.1107,0.1137,0.1137,0.1137,0.1136,0.1194,0.1195,0.1197,0,0,0,0,0,0,0,0,0,0,0,0,0,0.0964,0.0965,0.1025,0.1026,0.1027,0.1105,0.1106,0.1107,0.1137,0.1137,0.1137,0.1136,0.1193,0.1195,0.1197,0,0,0,0,0,0,0,0,0,0,0,0,0,0.1011,0.0965,0.1025,0.1052,0.1055,0.1105,0.1106,0.1107,0.1137,0.1137,0.1137,0.1136,0.1193,0.1195,0.1197,0.1218,0,0,0.1205,0.1206,0,0,0,0,0,0,0,0,0.1008,0.1013,0.1047,0.105,0.1054,0.1112,0.1106,0.1144,0.1137,0.1105,0.1136,0.1136,0.1165,0.117,0.1184,0.1221,0.1223,0.1205,0.1207,0.1208,0.1209,0,0,0,0,0,0,0,0.1005,0.101,0.1056,0.1048,0.1052,0.1083,0.1089,0.1114,0.1134,0.1108,0.111,0.1121,0.1167,0.1182,0.1186,0.1224,0.1205,0.1208,0.1209,0.121,0.1354,0.1357,0,0,0,0,0,0,0.0994,0.1007,0.1053,0.1058,0.1031,0.1084,0.1091,0.1093,0.1135,0.1141,0.1121,0.1122,0.1178,0.1183,0.1188,0.1248,0.1208,0.121,0.1212,0.1352,0.1355,0.1357,0,0,0,0,0,0,0.0992,0.0997,0.105,0.1036,0.1045,0.1085,0.1088,0.1094,0.1138,0.1145,0.1151,0.116,0.1178,0.1184,0.1235,0.1249,0.1211,0.1214,0.1349,0.1353,0.1356,0.1346,0,0,0,0,0,0,0.099,0.0995,0.1004,0.1034,0.1045,0.1069,0.1088,0.1096,0.1143,0.1146,0.118,0.1184,0.1178,0.1231,0.1238,0.1251,0.1216,0.1346,0.1351,0.1355,0.1343,0.1348,0.1353,0,0,0,0,0,0.0987,0.0987,0.1004,0.101,0.1051,0.1069,0.1077,0.1105,0.1146,0.1148,0.1196,0.1184,0.1263,0.1235,0.1242,0.1257,0.1344,0.135,0.1355,0.1341,0.1347,0.1353,0,0,0,0,0,0,0.0962,0.0992,0.101,0.1019,0.1041,0.1074,0.1093,0.1128,0.1172,0.1191,0.1211,0.1217,0.126,0.1279,0.1248,0.1318,0.1304,0.131,0.1291,0.1297,0.1302,0.1302,0.1218,0,0,0,0,0,0.0962,0.0975,0.1002,0.1013,0.1027,0.1074,0.1096,0.1118,0.1157,0.1179,0.1213,0.1257,0.1285,0.1308,0.1328,0.1374,0.1387,0.1394,0.1398,0.1402,0.1411,0.1464,0.1473,0.1375,0.1374,0.1374,0,0,0.0964,0.0978,0.0991,0.1011,0.104,0.1078,0.1087,0.1121,0.1164,0.1178,0.1256,0.127,0.1303,0.1339,0.1362,0.1357,0.1434,0.1409,0.1411,0.1419,0.147,0.1479,0.1487,0.1378,0.1377,0.1377,0,0,0.0964,0.0981,0.0995,0.1017,0.1055,0.1088,0.1107,0.1158,0.1185,0.1258,0.1273,0.1304,0.1376,0.1378,0.1396,0.1453,0.1452,0.1469,0.1496,0.1546,0.1553,0.156,0.1563,0.157,0.1478,0.1478,0.1478,0,0.0965,0.0988,0.1001,0.1023,0.1058,0.1104,0.1142,0.1179,0.1244,0.127,0.1286,0.1385,0.1394,0.1434,0.1445,0.1458,0.1481,0.1458,0.1548,0.1556,0.1563,0.1564,0.1573,0.1478,0.1478,0.1478,0.1478,0,0.0965,0.101,0.1022,0.1077,0.1108,0.1144,0.1196,0.1231,0.1294,0.134,0.1399,0.1419,0.1481,0.1477,0.1479,0.1531,0.1525,0.1536,0.1521,0.1572,0.157,0.1579,0.1478,0.1478,0.1478,0.1478,0,0,0.093,0.1006,0.1023,0.1058,0.1143,0.1159,0.1232,0.1291,0.1355,0.1406,0.1479,0.1506,0.153,0.1553,0.1549,0.1576,0.1619,0.1583,0.1586,0.1563,0.171,0.1577,0.1573,0.1654,0.1657,0.1658,0.1676,0,0.0942,0.0984,0.1035,0.1118,0.1154,0.1213,0.1294,0.1353,0.1416,0.1494,0.1509,0.1592,0.156,0.1599,0.1617,0.1625,0.1648,0.1612,0.1685,0.1686,0.1544,0.1582,0.1666,0.1683,0.1684,0.1686,0.1687,0,0.095,0.0975,0.104,0.1146,0.1171,0.1238,0.134,0.1421,0.1526,0.1569,0.1629,0.1676,0.1712,0.1699,0.1732,0.1718,0.1724,0.1717,0.1719,0.1608,0.1571,0.1633,0.1703,0.1701,0.17,0.1699,0.1698,0,0.0908,0.0997,0.1044,0.1076,0.1196,0.124,0.1331,0.145,0.1505,0.164,0.1685,0.1758,0.1792,0.1827,0.1811,0.1801,0.1839,0.1829,0.1707,0.1696,0.1811,0.1804,0.1876,0.1876,0.1876,0.1876,0.1876,0,0.0906,0.0953,0.103,0.1054,0.1141,0.1244,0.1357,0.1443,0.1559,0.1624,0.1743,0.1757,0.1834,0.1856,0.1851,0.1787,0.1882,0.1711,0.1701,0.1804,0.1796,0.1815,0.1807,0.1877,0.1877,0.1877,0.1877,0,0.0874,0.093,0.0983,0.1085,0.1132,0.1203,0.1351,0.1408,0.1552,0.1626,0.1674,0.1761,0.1792,0.1836,0.1872,0.1807,0.1792,0.1754,0.1839,0.1833,0.1602,0.1595,0.1618,0.1614,0.161,0.1607,0.1604,0,0.0858,0.0882,0.0978,0.1006,0.106,0.117,0.1247,0.1397,0.1438,0.1584,0.1587,0.1673,0.1716,0.1652,0.1715,0.1721,0.1699,0.1689,0.1656,0.1593,0.1581,0.1579,0.1577,0.1599,0.1598,0.1597,0.1596,0,0.0819,0.0861,0.0885,0.0947,0.1012,0.1069,0.1175,0.1188,0.1351,0.1464,0.147,0.1503,0.152,0.1541,0.157,0.1566,0.17,0.1651,0.1658,0.1626,0.1569,0.1561,0.1563,0.1583,0.1585,0.1586,0.1587,0,0.0783,0.0784,0.0821,0.0867,0.0931,0.0947,0.102,0.1061,0.1135,0.1298,0.1275,0.138,0.1468,0.1457,0.1471,0.1476,0.1448,0.1409,0.1428,0.1443,0.138,0.1281,0.1199,0,0,0,0,0,0.074,0.0719,0.0736,0.0767,0.0813,0.0854,0.0953,0.102,0.1165,0.113,0.1205,0.1226,0.1253,0.1295,0.1264,0.1386,0.1453,0.1343,0.1416,0.1513,0.1527,0.1471,0,0,0,0,0,0,0.0702,0.071,0.0699,0.0669,0.0665,0.0711,0.0767,0.0856,0.0855,0.1003,0.1021,0.1136,0.1179,0.1245,0.1229,0.1248,0.1266,0.1414,0.141,0.1504,0.1518,0.153,0.1476,0,0,0,0,0]},{"header":{"parameterUnit":"m.s-1","parameterCategory":2,"la1":30.2991,"la2":30.254,"lo1":-89.0895,"lo2":-89.0444,"dy":0.0017,"dx":0.0017,"nx":28,"ny":28,"refTime":"2023-08-23T09:00:00:Z","depth":"4","parameterNumber":3,"parameterNumberName":"V-component_of_CURRENTS"},"data":[0,0,0,0,0,0,0,0,0,0,0,0,0,0,0,0,0,0,0,0,0,0,0,0,0,0,0,0,0,0,0,0,0,0,0,0,0,0,0,0,0,0,0,0,0,0,0,0,0,0,0,0,0,0,0,0,0,0,0.0393,0.0393,0,0.0371,0.037,0.037,0.035,0.035,0.035,0.035,0.0333,0.0332,0.0332,0,0,0,0,0,0,0,0,0,0,0,0,0,0.0392,0.0392,0.0393,0.0393,0.0393,0.0371,0.037,0.037,0.035,0.035,0.035,0.035,0.0333,0.0332,0.0332,0,0,0,0,0,0,0,0,0,0,0,0,0,0.0381,0.0392,0.0393,0.0382,0.0382,0.0371,0.037,0.0369,0.035,0.035,0.035,0.035,0.0333,0.0332,0.0331,0.0326,0,0,0.0329,0.0329,0,0,0,0,0,0,0,0,0.0381,0.038,0.0384,0.0383,0.0382,0.0366,0.0364,0.0356,0.035,0.0359,0.035,0.035,0.0346,0.0344,0.0336,0.0325,0.0324,0.0329,0.0329,0.0328,0.0328,0,0,0,0,0,0,0,0.0382,0.0381,0.0381,0.0384,0.0383,0.037,0.0369,0.0362,0.035,0.0358,0.0357,0.036,0.0345,0.0336,0.0335,0.0324,0.0329,0.0328,0.0328,0.0328,0.0305,0.0305,0,0,0,0,0,0,0.0392,0.0382,0.0382,0.0381,0.0385,0.0371,0.0369,0.0369,0.035,0.0348,0.036,0.0359,0.0338,0.0336,0.0334,0.0329,0.0328,0.0328,0.0327,0.0305,0.0305,0.0305,0,0,0,0,0,0,0.0392,0.0392,0.0383,0.0383,0.0381,0.0371,0.0371,0.0368,0.0369,0.0352,0.0349,0.0365,0.0338,0.0336,0.0326,0.0328,0.0327,0.0327,0.0305,0.0305,0.0305,0.0317,0,0,0,0,0,0,0.0392,0.0392,0.0397,0.0384,0.0382,0.0378,0.0371,0.0368,0.0371,0.037,0.0355,0.0353,0.0337,0.0327,0.0325,0.0327,0.0326,0.0306,0.0305,0.0305,0.0317,0.0317,0.0318,0,0,0,0,0,0.0392,0.0393,0.0397,0.0397,0.0388,0.0378,0.0375,0.0366,0.0372,0.0368,0.0356,0.0354,0.0324,0.0326,0.0324,0.0326,0.0306,0.0305,0.0305,0.0317,0.0317,0.0317,0,0,0,0,0,0,0.0392,0.0391,0.0395,0.0396,0.0392,0.0376,0.0378,0.0375,0.0363,0.0368,0.0351,0.0347,0.0338,0.0331,0.0334,0.0318,0.0315,0.0314,0.0325,0.0325,0.0325,0.0332,0.0325,0,0,0,0,0,0.0398,0.0399,0.0396,0.0397,0.0401,0.0394,0.0392,0.0388,0.0377,0.0373,0.0362,0.0351,0.0333,0.033,0.0314,0.0309,0.029,0.0309,0.031,0.031,0.0314,0.0278,0.0275,0.0304,0.0304,0.0304,0,0,0.04,0.0399,0.0401,0.0398,0.0398,0.0401,0.0392,0.0395,0.0393,0.0374,0.037,0.0353,0.0331,0.0318,0.0314,0.0315,0.0291,0.031,0.031,0.0313,0.0277,0.0274,0.0272,0.0304,0.0304,0.0304,0,0,0.0405,0.0407,0.0415,0.0412,0.0417,0.0412,0.0418,0.0412,0.0405,0.0401,0.038,0.0362,0.0351,0.0324,0.0311,0.0307,0.0292,0.031,0.032,0.0285,0.0283,0.028,0.0247,0.0242,0.0313,0.0313,0.0313,0,0.041,0.0422,0.0414,0.042,0.0427,0.0422,0.0435,0.0421,0.041,0.0406,0.0405,0.0371,0.0351,0.0322,0.0316,0.0308,0.0289,0.032,0.0286,0.0283,0.028,0.0247,0.024,0.0313,0.0313,0.0313,0.0313,0,0.042,0.0435,0.044,0.0449,0.0448,0.0459,0.0449,0.0444,0.0446,0.0435,0.0417,0.0381,0.0365,0.0349,0.0331,0.0301,0.0294,0.0288,0.0285,0.0278,0.0243,0.0236,0.0314,0.0314,0.0314,0.0314,0,0,0.0435,0.0446,0.0455,0.0469,0.0471,0.0474,0.0468,0.0466,0.0472,0.0448,0.0447,0.0399,0.039,0.0374,0.0345,0.0308,0.0263,0.0294,0.0292,0.0262,0.0187,0.0171,0.0162,0.0252,0.0251,0.0251,0.017,0,0.0458,0.0481,0.0478,0.0507,0.0525,0.0513,0.0518,0.0508,0.0494,0.0486,0.0441,0.0436,0.0397,0.0399,0.0349,0.0284,0.0246,0.0285,0.0198,0.0196,0.0183,0.0154,0.0248,0.0165,0.0163,0.0162,0.0161,0,0.0482,0.0498,0.0535,0.0556,0.0566,0.0579,0.0589,0.0598,0.0571,0.0555,0.0523,0.0495,0.0433,0.0414,0.029,0.0319,0.026,0.0205,0.02,0.0178,0.0167,0.0174,0.0149,0.015,0.015,0.0151,0.0152,0,0.0514,0.054,0.0577,0.0583,0.0604,0.062,0.0641,0.0631,0.0639,0.0615,0.0611,0.0531,0.05,0.0409,0.0293,0.0296,0.0157,0.015,0.0077,0.0076,0.0111,0.0114,0.0074,0.0074,0.0074,0.0075,0.0075,0,0.0544,0.0575,0.0601,0.0622,0.0678,0.0681,0.0732,0.0724,0.0719,0.0729,0.0672,0.0637,0.0498,0.0402,0.0302,0.016,0.0164,0.0071,0.005,0.0117,0.0122,0.0105,0.011,0.0072,0.0072,0.0073,0.0073,0,0.0574,0.0594,0.0638,0.0676,0.07,0.0748,0.0799,0.0817,0.0818,0.0821,0.082,0.0703,0.0573,0.0433,0.0265,0.0173,0.0049,0.0007,0.0087,0.0073,-0.0011,-0.0004,-0.0088,-0.009,-0.0091,-0.0092,-0.0093,0,0.0589,0.0618,0.0683,0.0716,0.0741,0.0811,0.0856,0.0874,0.0882,0.0852,0.0842,0.0727,0.0637,0.0384,0.0232,0.0038,0.0015,-0.0046,-0.0034,-0.0018,-0.0029,-0.0021,-0.0014,-0.0094,-0.0095,-0.0095,-0.0095,0,0.0613,0.0644,0.0676,0.0755,0.0811,0.0864,0.092,0.0933,0.0949,0.094,0.085,0.0724,0.0565,0.0365,0.0215,0.0078,-0.0009,-0.0058,-0.0057,-0.0046,-0.0026,-0.0034,-0.0026,-0.0099,-0.0099,-0.0098,-0.0098,0,0.063,0.0656,0.071,0.0776,0.0845,0.0891,0.0924,0.0926,0.0946,0.0911,0.087,0.0718,0.0613,0.0385,0.0246,0.0106,0.0069,0.003,0.0026,0.0028,0.0084,0.0129,0.0078,0,0,0,0,0,0.064,0.0666,0.0718,0.0785,0.0849,0.09,0.0947,0.0966,0.0988,0.093,0.0902,0.0762,0.0526,0.0415,0.0272,0.0221,0.0046,0.0048,-0.0,-0.0121,-0.0116,-0.0072,0,0,0,0,0,0,0.0642,0.0692,0.0715,0.0786,0.0835,0.0908,0.095,0.0957,0.0923,0.0914,0.0788,0.0731,0.0501,0.0615,0.0272,0.0228,0.0177,-0.0058,-0.0061,-0.0123,-0.0119,-0.0116,-0.0069,0,0,0,0,0]}]]